Retour au catalogue

STARLINK-4500

ActifCommunicationsVLEO
NORAD 53413·PAYLOAD·🇺🇸 United States

Lancé Aug 10, 2022 depuis Cape Canaveral Space Force Station

Loading…

Prochains Passages (prochaines 24 heures)

TLE

FraisSource: CelesTrak SupGP

Époque: Sep 15, 2026, 02:40 UTC

1 53413C 22097AB  26258.11159722  .00043229  00000+0  27111-2 0  2588
2 53413  53.1603 343.1415 0001146  95.0763  42.4571 15.08811945    15

Suivez STARLINK-4500 en temps réel avec AllMySat

Download on the App Store